Printer-friendly version

IAU Minor Planet Center

Minor Planet Center

MPEC 2006-C45 : 2006 CL10

The following Minor Planet Electronic Circular may be linked-to from your own Web pages, but must not otherwise be redistributed electronically.


Read MPEC 2006-C44 Read MPEC 2006-C46


M.P.E.C. 2006-C45                                Issued 2006 Feb. 8, 12:43 UT

     The Minor Planet Electronic Circulars contain information on unusual
         minor planets and routine data on comets.  They are published
   on behalf of Commission 20 of the International Astronomical Union by the
          Minor Planet Center, Smithsonian Astrophysical Observatory,
                          Cambridge, MA 02138, U.S.A.

                  Supported in part by the Brinson Foundation
                  Supported in part by the TABASGO Foundation
             Prepared using the Tamkin Foundation Computer Network

                              MPC@CFA.HARVARD.EDU
          URL http://cfa-www.harvard.edu/iau/mpc.html  ISSN 1523-6714

                                   2006 CL10

Observations:
     K06C10L* C2006 02 06.41503 13 53 55.61 +31 23 26.8          18.9   EC045704
     K06C10L  C2006 02 06.42763 13 54 05.03 +31 23 27.1          18.9   EC045704
     K06C10L  C2006 02 06.44050 13 54 14.71 +31 23 26.6          18.9   EC045704
     K06C10L  C2006 02 06.45345 13 54 24.41 +31 23 27.2          19.7   EC045704
     K06C10L  C2006 02 06.46629 13 54 34.00 +31 23 27.7          19.3   EC045704
     K06C10L  C2006 02 07.28203 14 05 09.37 +31 21 08.1          19.2 R EC045932
     K06C10L  C2006 02 07.29958 14 05 22.76 +31 21 04.7          19.3 R EC045932
     K06C10L  C2006 02 07.30545 14 05 27.26 +31 21 03.7          19.3 R EC045932
     K06C10L  C2006 02 07.31042 14 05 31.03 +31 21 02.7          19.0 R EC045932
     K06C10L  C2006 02 07.33845 14 05 53.51 +31 20 55.3          19.2 R EC045H36
     K06C10L  C2006 02 07.34263 14 05 56.66 +31 20 54.5          19.1 R EC045H36
     K06C10L  C2006 02 07.34697 14 06 00.12 +31 20 53.5                 EC045H36
     K06C10L  C2006 02 07.35078 14 06 02.90 +31 20 52.9                 EC045H36
     K06C10L  C2006 02 07.41262 14 06 50.84 +31 20 41.9          19.2   EC045704
     K06C10L  C2006 02 07.41275 14 06 50.95 +31 20 41.8          18.7   EC045704
     K06C10L  C2006 02 07.41438 14 06 52.45 +31 20 40.3          17.3 R EC045854
     K06C10L  C2006 02 07.41739 14 06 54.74 +31 20 40.9          19.5 R EC045854
     K06C10L  C2006 02 07.42039 14 06 57.07 +31 20 39.1          17.9 R EC045854
     K06C10L  C2006 02 07.42567 14 07 00.65 +31 20 38.4          20.1   EC045704
     K06C10L  C2006 02 07.42580 14 07 00.74 +31 20 38.0          19.4   EC045704
     K06C10L  C2006 02 07.43832 14 07 10.33 +31 20 35.8          19.8   EC045704
     K06C10L  C2006 02 07.43844 14 07 10.37 +31 20 36.3          19.3   EC045704
     K06C10L  C2006 02 07.45090 14 07 19.83 +31 20 32.2          19.7   EC045704
     K06C10L  C2006 02 07.45103 14 07 19.90 +31 20 32.5          19.6   EC045704
     K06C10L  C2006 02 07.46374 14 07 29.54 +31 20 28.9          19.1   EC045704
     K06C10L  C2006 02 07.46387 14 07 29.63 +31 20 29.0          19.0   EC045704
     K06C10L  C2006 02 08.19746 14 17 02.85 +31 14 50.4                 EC045J95
     K06C10L  C2006 02 08.20039 14 17 05.09 +31 14 49.0                 EC045J95
     K06C10L  C2006 02 08.20330 14 17 07.33 +31 14 47.6          19.4 R EC045J95

Observer details:
704 Lincoln Laboratory ETS, New Mexico.  Observers M. Bezpalko, L. Manguso,
    D. Torres, R. Kracke, M. Blythe, H. Love.  Measurers J. Stuart, J. Kommers.
    1.0-m f/2.15 reflector + CCD.
854 Sabino Canyon Observatory, Tucson.  Observer J. E. McGaha.  0.36-m f/10.0
    Schmidt-Cassegrain + CCD.
932 John J. McCarthy Obs., New Milford.  Observer M. Robson.  0.4-m f/6.5
    Schmidt-Cassegrain + CCD.
H36 Sandlot Observatory, Scranton.  Observer G. Hug.  0.30-m
    Schmidt-Cassegrain + CCD.
J95 Great Shefford.  Observer P. Birtwhistle.  0.40-m f/6.0 Schmidt-Cassegrain
    + CCD.

Orbital elements:
2006 CL10                                                Earth MOID = 0.0973 AU
Epoch 2006 Mar. 6.0 TT = JDT 2453800.5                  MPC
M 353.72800              (2000.0)            P               Q
n   0.45576213     Peri.   90.39969     -0.97080451     +0.20285912
a   1.6722860      Node   101.30793     -0.23656039     -0.89804308
e   0.4346471      Incl.    7.50109     +0.03972128     -0.39034191
P   2.16           H   21.1           G   0.15           U   7
Residuals in seconds of arc
060206 704  0.1-  0.7+    060207 H36  1.4-  0.8+    060207 704  0.7+  0.1+
060206 704  0.5-  0.3+    060207 H36  0.5+  0.5+    060207 704  0.1+  0.6+
060206 704  0.1-  0.7-    060207 H36  1.1-  0.6+    060207 704  0.5+  0.3-
060206 704  0.1-  0.4-    060207 704  0.7+  0.1+    060207 704  0.1+  0.1+
060206 704  0.4-  0.0     060207 704  0.8+  0.0     060207 704  0.4+  0.0
060207 932  0.0   0.2-    060207 854  0.5+  1.6-    060207 704  0.3+  0.1+
060207 932  0.0   0.6-    060207 854  0.6+  0.3-    060208 J95  0.2+  0.7-
060207 932  0.3+  0.6-    060207 854  1.2+  1.5-    060208 J95  0.2+  0.6-
060207 932  0.1+  0.6-    060207 704  0.5-  0.4-    060208 J95  0.4+  0.4-
060207 H36  0.8-  0.8+    060207 704  0.6-  0.8-

Ephemeris:
2006 CL10                a,e,i = 1.67, 0.43, 8                   q = 0.9454
Date    TT    R. A. (2000) Decl.     Delta      r     Elong.  Phase     V
2006 02 04    13 23.43   +31 10.9    0.146    1.068   120.8    52.4    19.0
2006 02 14    15 31.05   +29 02.6    0.140    1.022   100.3    72.0    19.4
2006 02 24    17 11.57   +21 32.4    0.160    0.985    83.6    87.1    20.2
2006 03 06    18 15.39   +14 10.4    0.196    0.959    74.6    94.0    20.8
2006 03 16    18 58.32   +08 30.6    0.238    0.946    71.5    94.7    21.2
2006 03 26    19 31.02   +04 18.4    0.282    0.948    71.8    91.8    21.5
2006 04 05    19 58.09   +01 09.1    0.322    0.964    74.2    87.0    21.6
2006 04 15    20 21.35   -01 18.2    0.358    0.993    78.0    81.3    21.7
2006 04 25    20 41.31   -03 19.0    0.387    1.033    83.0    75.2    21.7
2006 05 05    20 57.66   -05 08.4    0.408    1.081    89.0    68.9    21.7
2006 05 15    21 09.89   -07 00.6    0.421    1.136    96.1    62.2    21.7
2006 05 25    21 17.35   -09 07.5    0.429    1.195   104.6    55.1    21.7
2006 06 04    21 19.13   -11 39.8    0.432    1.257   114.6    47.2    21.6
2006 06 14    21 14.63   -14 41.7    0.437    1.321   126.1    38.4    21.4
2006 06 24    21 03.71   -18 07.0    0.446    1.385   139.2    28.7    21.3
2006 07 04    20 47.31   -21 37.3    0.467    1.449   153.2    18.4    21.2
2006 07 14    20 28.00   -24 44.5    0.504    1.512   166.9     8.8    21.1
2006 07 24    20 09.14   -27 07.2    0.561    1.574   172.8     4.6    21.2
2006 08 03    19 53.80   -28 39.4    0.637    1.634   162.7    10.6    21.9

Timothy B. Spahr             (C) Copyright 2006 MPC           M.P.E.C. 2006-C45

Read MPEC 2006-C44 Read MPEC 2006-C46


Our Web policy. Index to the CBAT/MPC/ICQ pages.


Valid HTML 4.01!